Weather in Batiovo

Ukraine / Zakarpattia District     48°21′42″N   22°23′23″E
temp.,
°C
wind,
m/s
gust,
m/s
humid.,
%
clouds,
%
prec.,
mm/h
press.,
hPa
HPBL,
m
16 october, sat
sat1600:00+6ene11683 0.0 102010
03:00+5ne22725 0.0 101910
06:00+5nne117577 0.0 101910
09:00+7nnw2364100 0.0 1019101
12:00+12nnw4550100 0.0 1019493
15:00+16n4542100 0.0 10181216
18:00+14nnw224499 0.0 101829
21:00+9nnw376131 0.0 1020113
17 october, sun
sun1700:00+7n34700 0.0 102153
03:00+6n22795 0.0 102116
06:00+5n22845 0.0 102211
09:00+6n11795 0.0 102232
12:00+12sw00525 0.0 1022461
15:00+15wnw224310 0.0 1021995
18:00+13w11515 0.0 102010
21:00+9sw116434 0.0 102110
18 october, mon
mon1800:00+8sse117368 0.0 102210
03:00+7se227699 0.0 102214
06:00+6se2280100 0.0 102218
09:00+7se2277100 0.0 102366
12:00+11sse2259100 0.0 1024460
15:00+13wnw1150100 0.0 1023790
18:00+12nnw2257100 0.0 102335
21:00+11nw2261100 0.0 102433
19 october, tue
tue1900:00+11nw236399 0.0 102546
03:00+8wnw227499 0.0 102622
06:00+10wnw2366100 0.0 102675
09:00+10wnw1270100 0.0 102758
12:00+13wnw1264100 0.0 1028504
15:00+15w125765 0.0 1027911
18:00+14ese22575 0.0 102619
21:00+10sse227597 0.0 102820
20 october, wed
wed2000:00+9se337896 0.0 102837
03:00+7se34856 0.0 102755
06:00+7se348892 0.0 102766
09:00+7se378381 0.0 1026181
12:00+14sse45545 0.0 1025731
15:00+16s464386 0.0 10221238
18:00+15s234689 0.0 102151
21:00+12se3661100 0.0 101995